GFSSW_925_temp_057.txt.gz
Temp
8 8 8 8 8 8 8 9 10 11 12 12 12 11 11 12 13 13 14 18 18 19 20 21 21 22 23 23 24 25 22 23 25 26 28 30 31 33 34 33 34 35 34 34 34
7 7 8 8 8 8 9 11 12 12 13 13 13 13 12 12 11 12 18 19 19 19 19 21 21 23 22 23 23 23 22 23 26 27 28 30 31 31 32 31 32 33 34 36 35
7 7 7 7 8 10 12 12 13 13 13 13 13 13 12 11 13 19 19 19 19 19 19 19 21 22 22 23 24 24 22 25 26 28 29 29 30 31 31 30 31 31 33 33 34
7 7 8 9 10 11 12 12 13 13 13 13 13 13 12 11 18 19 20 20 20 19 18 20 21 20 22 21 23 23 25 26 26 27 28 27 29 30 30 30 31 32 32 32 32
8 8 10 11 12 13 13 13 13 13 13 13 13 13 13 14 17 21 21 21 20 19 18 19 21 21 20 23 23 23 25 26 27 27 28 28 28 29 30 31 32 32 32 30 31
10 10 11 11 12 13 13 13 14 13 13 13 13 13 12 16 23 22 22 22 21 21 23 23 22 22 22 22 21 23 24 25 26 27 27 28 28 29 30 31 32 32 30 30 30
8 9 10 12 13 13 14 14 14 14 14 14 13 12 15 16 23 23 23 23 23 23 23 23 23 21 20 20 22 22 22 24 25 25 26 27 27 28 30 30 31 31 31 31 30
8 7 8 9 12 14 14 15 15 15 14 14 13 12 15 22 23 23 23 23 24 24 24 24 23 21 21 20 21 20 21 20 24 25 26 25 24 27 29 30 30 30 31 31 30
7 8 9 9 10 13 14 15 16 15 15 14 13 13 17 22 22 23 23 23 23 23 24 24 23 20 20 19 17 19 18 20 22 25 25 25 25 27 28 29 29 30 30 31 31
10 10 10 9 11 14 15 16 16 15 15 13 15 16 19 22 23 23 23 23 23 22 22 22 20 19 18 17 16 19 20 22 22 24 24 24 25 27 28 29 29 29 29 29 30
10 11 11 11 13 14 14 15 15 14 14 17 20 20 23 23 23 23 24 23 23 22 19 21 19 18 19 21 22 22 21 21 22 23 22 22 22 24 25 26 27 29 29 29 29
10 11 12 13 14 15 13 12 18 19 16 20 20 22 23 23 21 23 24 22 21 19 20 19 18 21 22 22 22 21 21 20 21 23 22 22 22 23 24 24 25 26 28 28 27
10 11 12 14 15 16 16 19 20 19 16 19 22 23 23 23 22 22 23 22 20 19 19 18 20 22 22 21 21 20 20 20 20 22 22 21 21 22 24 24 25 26 27 27 28
10 12 12 15 14 16 18 19 19 18 14 20 21 23 23 23 21 24 24 22 20 19 19 19 20 21 21 20 21 18 20 21 21 20 18 22 18 20 22 23 24 25 25 24 25
10 12 14 12 13 15 19 19 19 18 15 22 22 22 23 22 22 23 24 21 19 19 20 19 20 20 20 20 20 18 20 19 19 18 18 19 18 20 21 21 23 23 25 26 25
11 12 13 14 13 18 19 19 18 14 16 21 23 22 21 22 23 24 23 22 21 20 20 20 22 20 19 20 19 20 18 17 17 16 15 18 18 19 20 21 22 24 25 26 27
11 13 13 13 15 18 18 17 14 15 23 21 21 21 20 21 22 23 22 20 18 18 19 19 20 20 19 17 18 16 14 11 12 13 14 18 18 18 21 22 23 22 23 25 25
11 15 15 15 17 17 17 15 15 20 20 21 20 20 20 22 22 22 21 19 20 18 16 15 15 17 19 17 16 16 14 12 13 14 15 18 16 18 20 21 22 22 22 24 25
11 14 15 17 17 17 13 13 15 20 20 19 19 19 20 20 20 20 19 19 19 17 15 14 15 17 18 19 18 17 14 15 14 16 14 16 18 19 21 20 18 17 16 17 21
9 13 16 17 17 17 13 15 18 20 20 19 17 19 17 18 18 18 18 20 19 18 17 16 13 17 18 18 18 16 16 13 13 13 13 16 17 17 16 15 15 15 15 16 15
10 14 17 17 17 14 12 16 19 20 20 18 17 17 17 17 17 17 17 18 19 18 17 15 14 14 16 16 15 14 15 13 14 12 12 13 14 17 14 14 14 14 16 15 15
12 15 17 18 13 14 15 18 18 20 20 19 19 18 17 17 16 16 17 17 18 17 15 13 12 12 14 16 17 16 13 12 11 12 13 12 12 15 14 15 14 13 15 15 15
10 14 18 18 13 14 16 18 18 20 19 18 17 17 17 16 14 17 17 18 17 16 15 14 11 11 13 15 14 15 16 15 13 12 13 13 14 17 15 15 14 12 13 14 15
11 13 15 15 15 14 14 15 17 19 20 19 18 18 16 16 16 16 16 18 18 17 17 14 12 11 11 13 14 14 15 17 15 12 14 16 15 16 14 15 15 14 13 13 14
12 13 13 11 12 12 14 15 17 18 18 16 15 16 15 14 14 14 15 16 17 17 16 14 11 13 14 15 15 16 16 17 17 17 15 15 17 15 15 15 15 14 13 13 15
9 10 10 10 12 13 14 16 16 17 16 15 14 15 15 13 14 14 14 14 14 16 15 12 11 12 13 15 16 16 16 17 17 17 16 13 16 17 18 15 15 16 15 16 19
10 11 10 9 11 13 13 14 15 15 16 16 15 14 13 14 15 15 14 14 14 13 14 13 12 11 12 14 15 13 13 14 14 15 14 13 14 15 16 15 14 17 18 18 20

GFSSW_925_temp_060.txt.gz
Temp
7 7 8 8 8 8 9 11 12 12 12 12 12 12 12 12 13 13 12 18 19 19 19 20 21 22 22 22 23 24 19 20 23 24 26 27 27 29 30 29 30 33 33 33 34
7 7 7 7 7 8 11 12 12 13 13 12 12 12 12 12 11 10 19 19 19 19 19 19 20 21 20 21 22 21 18 21 24 25 25 27 27 28 28 28 29 30 31 32 31
7 7 8 8 9 10 12 13 13 13 13 12 12 12 13 10 10 17 19 20 19 18 18 18 19 20 20 21 21 21 22 23 24 25 26 26 27 28 27 27 28 29 31 32 32
8 7 7 7 9 10 12 13 13 13 13 12 12 13 13 11 17 20 20 20 19 18 18 19 19 20 20 20 21 20 22 23 24 25 25 25 27 27 27 27 29 30 30 31 32
8 8 8 7 8 12 13 13 13 13 13 12 13 13 12 12 14 21 21 20 20 19 18 18 18 19 20 20 20 20 22 23 24 25 25 25 26 27 27 29 30 30 30 29 29
7 8 8 7 8 10 13 13 14 14 13 13 13 13 11 15 22 22 22 20 20 19 20 17 20 20 20 20 19 21 21 21 22 23 24 25 26 26 27 29 29 30 30 29 30
7 8 7 8 10 11 12 14 15 14 14 13 13 12 12 15 22 21 21 21 21 21 22 23 22 21 19 18 20 20 19 20 22 23 23 25 25 25 27 28 28 29 30 30 28
9 10 10 9 7 10 13 15 15 15 14 14 13 12 12 21 21 22 22 23 23 23 22 23 22 20 20 19 19 19 19 18 22 22 24 24 23 26 26 26 27 27 29 30 28
10 10 10 10 10 11 14 16 16 15 15 14 12 12 15 20 22 23 23 22 23 23 23 23 21 19 20 18 15 17 17 19 20 22 23 23 23 24 24 25 26 27 27 28 29
10 10 11 12 11 12 15 16 16 16 15 13 14 14 17 21 22 23 23 23 22 21 20 21 17 17 15 15 15 17 17 19 20 22 22 20 21 22 23 23 23 23 25 27 28
10 10 11 12 13 13 16 16 14 15 15 16 17 17 19 22 23 23 23 23 21 19 18 19 17 16 16 16 18 18 18 18 20 22 22 20 20 21 22 22 21 22 23 23 25
10 10 11 13 14 15 15 12 18 18 15 17 18 19 20 21 21 21 23 21 20 18 18 16 16 19 20 20 20 19 18 17 19 21 21 19 21 22 22 21 21 21 22 22 23
10 11 11 14 16 15 15 16 18 19 14 17 19 19 20 21 20 20 22 21 20 19 18 17 18 20 20 19 19 18 17 17 17 19 19 19 19 20 21 21 21 22 21 21 21
10 10 11 14 15 14 15 18 19 18 13 18 20 21 22 22 20 22 22 21 20 18 18 17 18 19 19 19 19 17 18 18 18 16 15 19 16 18 19 19 20 21 20 19 21
11 11 11 13 14 13 17 18 18 17 13 20 21 23 22 20 21 22 23 20 18 18 18 17 18 18 18 18 19 17 18 16 17 16 16 17 14 18 19 19 20 21 21 22 22
11 12 11 12 13 17 17 18 18 13 16 20 21 21 20 20 21 21 21 21 20 18 18 18 19 19 18 19 19 17 16 15 14 14 13 16 15 17 18 19 20 21 21 21 20
12 14 14 14 15 17 17 15 13 13 20 19 19 19 18 19 20 21 20 19 17 17 16 17 18 18 18 17 17 15 13 10 11 12 13 17 15 16 18 19 19 17 16 16 16
13 15 15 16 17 16 16 13 14 19 18 20 19 18 18 19 19 19 19 17 17 16 13 13 14 16 17 17 15 15 13 10 12 12 14 16 14 16 18 18 16 16 16 16 16
14 15 15 17 17 16 11 11 13 17 18 18 18 17 17 18 17 17 16 16 17 16 14 13 13 17 17 17 17 15 13 14 12 13 12 14 16 16 17 16 16 16 16 15 15
11 12 15 17 17 16 10 13 16 19 19 18 16 17 15 15 16 15 16 18 17 16 15 15 12 16 17 16 16 15 15 12 10 11 12 13 15 15 15 14 14 15 14 14 16
12 11 17 17 17 10 10 13 16 19 19 18 17 16 16 15 15 15 17 17 17 16 14 12 12 13 14 14 14 13 13 12 11 10 9 13 13 13 13 13 13 14 14 14 14
7 12 17 17 11 9 12 16 16 18 19 18 17 16 16 15 15 15 15 16 17 16 14 13 11 10 13 15 15 14 13 11 9 11 12 12 12 17 14 14 13 13 13 13 13
6 8 17 17 10 10 12 15 16 17 17 17 16 16 16 15 14 15 16 17 16 15 13 13 10 10 12 13 13 15 14 13 12 12 11 12 13 16 14 14 14 12 13 12 13
7 9 9 8 10 12 11 13 15 17 17 16 15 15 14 14 15 14 14 16 16 15 16 13 10 11 11 12 12 12 13 14 13 12 13 13 14 15 14 14 14 13 14 13 13
6 8 9 8 9 9 11 12 13 15 15 15 14 14 13 12 12 13 14 14 15 15 14 11 11 10 12 13 14 14 14 15 14 14 12 14 13 14 13 13 13 13 14 15 15
6 6 6 6 8 9 10 12 13 13 13 13 14 13 13 11 12 11 13 12 12 13 12 10 10 11 12 14 14 14 14 15 16 14 13 12 13 12 13 14 14 15 16 15 16
8 9 6 6 7 9 9 10 11 11 12 14 12 11 12 12 12 12 13 12 12 12 12 10 10 10 12 13 13 12 13 13 13 13 12 12 12 12 12 13 13 13 14 14 15

GFSSW_925_temp_063.txt.gz
Temp
7 7 7 7 7 7 8 8 9 10 10 10 12 12 12 12 13 12 11 19 19 18 18 19 20 20 21 21 22 23 19 20 22 24 25 26 26 27 28 27 27 28 29 29 27
7 8 8 8 7 7 7 9 10 10 11 11 12 13 12 11 9 9 19 19 18 18 18 18 19 20 18 20 21 20 17 20 23 25 25 25 25 26 27 26 27 27 28 30 28
7 7 7 8 8 7 7 8 10 11 12 12 12 13 12 10 10 17 20 19 18 18 17 18 18 19 19 20 20 20 20 22 24 24 24 24 25 26 26 26 27 26 27 29 29
8 8 8 8 8 8 7 8 9 11 13 12 12 12 13 12 17 21 20 19 18 18 17 18 18 18 18 19 20 20 21 22 23 24 23 24 25 25 26 26 27 27 27 27 29
7 7 7 7 7 7 7 8 11 13 13 13 13 12 12 13 14 22 21 19 18 17 17 18 18 18 19 19 20 20 20 21 22 22 22 23 24 25 25 27 27 28 28 26 26
8 8 7 7 7 7 7 10 13 14 13 13 13 12 11 16 22 21 20 19 19 17 18 17 19 18 19 19 19 19 20 20 21 22 22 23 24 24 26 27 27 27 27 26 25
8 8 7 7 7 7 8 11 14 14 14 13 12 11 11 15 20 21 21 20 20 20 19 20 21 21 18 19 19 19 19 19 21 22 22 24 22 23 25 26 26 27 27 27 26
9 9 8 8 7 8 11 14 15 15 15 14 12 11 12 20 20 21 21 20 21 21 20 22 21 20 19 19 17 18 17 18 19 22 22 22 22 24 23 23 23 24 25 26 26
10 10 9 8 9 11 15 15 16 15 14 13 11 12 14 20 21 22 22 22 22 22 22 22 21 19 18 16 14 14 17 18 19 21 21 21 20 22 22 22 22 22 22 24 24
9 10 10 10 11 14 16 16 15 14 13 13 13 13 17 18 21 22 22 22 21 20 19 19 15 16 13 14 15 17 17 17 18 20 21 20 19 20 21 22 22 21 21 22 23
9 10 10 11 13 15 17 16 13 14 14 16 16 16 18 20 21 22 22 22 21 18 17 18 15 16 16 15 17 17 17 17 18 20 18 18 19 20 20 21 20 20 20 20 21
10 10 11 13 14 16 16 13 16 17 14 16 16 16 18 19 18 20 22 20 20 17 17 15 16 17 18 19 18 18 17 17 17 19 18 17 18 20 20 20 21 20 20 20 20
10 11 11 14 16 15 14 16 17 16 13 16 18 17 18 19 19 19 21 20 19 18 17 16 17 18 19 18 18 17 17 16 16 17 18 17 18 18 20 20 20 20 20 19 19
10 11 11 15 15 14 15 16 17 16 12 18 19 20 20 20 19 21 21 20 19 17 18 17 17 19 18 17 18 17 17 17 16 15 14 18 15 18 18 18 19 19 19 18 18
10 10 12 13 14 14 16 17 17 16 13 20 20 22 21 20 21 21 21 20 18 18 17 17 18 17 17 18 18 17 17 16 16 14 14 15 13 18 18 18 18 18 18 17 16
11 11 13 13 13 16 16 17 16 13 15 19 20 19 19 19 20 20 20 20 19 18 17 17 18 18 18 18 18 17 16 14 12 11 11 14 14 15 16 18 17 18 17 16 15
13 14 14 14 15 16 16 14 13 13 18 18 17 18 17 18 18 19 19 16 16 16 16 16 16 17 17 16 15 14 11 9 10 11 12 14 13 15 16 17 17 16 15 15 14
14 15 15 16 17 16 15 13 14 17 17 18 18 17 17 17 17 17 17 15 16 15 13 13 14 16 16 16 15 14 12 10 12 12 13 14 12 13 16 16 16 15 15 15 15
15 16 16 17 16 16 11 12 13 16 18 17 16 16 15 16 16 15 15 15 16 15 13 13 13 16 16 16 15 14 12 12 11 11 10 12 14 15 17 16 16 15 15 14 14
13 13 16 16 16 15 10 13 15 17 18 17 15 16 15 15 15 15 15 17 15 16 14 14 12 14 16 16 15 13 14 12 9 11 11 12 13 14 15 17 15 14 14 14 13
12 11 16 16 16 9 9 12 15 17 17 16 15 15 15 15 15 15 15 16 16 15 14 12 11 13 14 13 12 12 12 11 10 8 8 10 12 14 14 14 13 13 14 13 12
8 12 15 16 10 7 11 14 15 16 17 17 16 15 15 14 14 14 14 15 16 15 14 12 10 10 11 14 14 13 12 11 9 9 10 11 13 15 14 13 12 13 14 12 12
6 7 14 15 9 9 10 13 15 16 16 16 16 15 15 14 13 13 14 16 15 14 13 12 10 10 12 13 13 14 12 12 11 10 11 11 13 15 14 15 13 13 12 12 13
6 9 7 7 7 11 10 11 13 15 15 15 15 15 13 13 13 12 13 15 15 15 16 13 10 11 11 12 11 12 13 14 13 11 11 12 13 14 13 12 12 12 12 12 13
5 7 7 7 8 8 9 11 12 13 13 13 13 14 12 11 11 11 12 12 14 14 13 11 10 9 11 12 13 12 12 13 13 13 12 13 13 14 12 11 11 12 13 14 13
6 5 5 5 6 8 9 11 11 11 12 12 12 11 11 10 10 10 10 10 10 13 12 9 10 10 11 12 12 12 13 14 14 14 13 13 12 14 12 11 12 12 13 13 13
6 6 5 6 6 7 8 9 9 9 10 12 11 10 10 11 10 10 9 10 11 11 10 9 9 8 11 12 12 11 13 13 13 13 12 12 13 12 12 12 11 11 12 13 13

GFSSW_925_temp_069.txt.gz
Temp
7 8 8 8 8 7 8 7 8 9 11 12 12 11 10 9 10 9 12 17 17 18 17 18 19 20 20 22 23 23 24 25 25 25 26 26 27 27 28 28 28 29 29 29 29
8 8 8 8 8 7 7 7 8 11 12 12 13 12 10 9 10 11 18 18 17 17 17 19 20 20 22 22 23 24 24 25 25 25 26 26 26 26 27 28 28 28 29 29 29
8 8 8 8 8 8 7 8 9 13 13 13 13 12 11 10 13 20 19 19 18 17 17 17 18 20 21 21 22 23 23 24 25 25 26 26 25 26 26 26 28 27 28 29 29
8 8 8 8 8 8 8 8 8 12 13 13 13 13 12 11 20 19 19 19 18 18 17 18 19 20 21 21 22 22 22 23 25 25 24 25 25 24 26 26 27 27 28 28 29
8 8 8 8 8 8 8 8 8 12 14 13 13 13 12 15 19 19 19 19 18 18 18 19 20 20 21 21 21 21 22 22 23 24 23 23 24 24 25 26 26 27 28 28 28
8 8 8 8 8 8 8 8 8 11 14 14 13 12 12 18 19 19 19 18 18 17 18 18 20 20 21 21 21 21 21 22 22 24 23 23 24 25 26 26 26 26 27 27 26
8 8 8 7 8 8 8 8 9 11 14 13 12 11 13 19 19 19 18 19 19 18 20 19 19 21 20 20 20 20 20 22 22 23 23 24 23 24 23 25 25 26 26 26 26
6 7 7 7 8 7 9 11 12 13 14 13 11 10 16 19 19 19 20 20 19 18 18 19 19 20 20 20 19 20 20 21 22 22 23 23 23 23 22 23 24 24 25 25 26
6 6 7 8 9 12 13 14 14 14 14 12 11 12 19 19 19 21 21 21 20 19 19 19 20 19 20 20 20 19 20 20 21 21 22 22 22 22 22 22 22 23 24 24 25
6 7 8 9 11 14 15 15 14 13 12 11 12 14 19 20 19 20 21 20 21 21 20 20 19 20 19 20 19 19 19 20 20 21 21 22 21 22 21 21 21 22 22 23 24
6 8 10 12 13 14 14 14 16 16 13 17 17 17 18 18 19 21 21 21 20 20 20 18 20 20 20 19 19 19 19 19 20 20 20 21 21 21 22 22 21 22 21 22 22
7 8 10 13 15 15 14 16 15 15 16 16 16 16 17 18 19 20 20 21 20 19 18 19 19 20 19 19 18 18 19 19 20 20 20 20 20 21 22 21 22 22 21 21 21
6 9 10 14 15 15 15 14 14 14 16 17 17 18 19 18 19 20 21 20 20 19 19 19 20 19 19 19 19 19 19 18 18 19 19 19 21 20 21 21 21 21 21 20 20
6 10 13 15 14 14 15 15 15 15 17 19 20 20 19 19 20 20 21 21 20 19 18 19 19 19 19 19 19 19 18 18 18 18 18 18 18 20 20 20 20 21 22 21 20
9 12 14 14 14 15 15 15 15 15 17 20 20 20 20 20 20 21 20 20 20 20 19 20 19 19 19 19 19 19 18 18 17 18 17 19 17 19 19 20 21 21 21 21 20
13 14 15 15 14 15 15 15 15 17 17 19 20 19 19 19 20 20 20 20 19 19 19 19 19 19 19 18 18 17 18 18 15 16 16 17 17 19 20 20 20 21 21 21 20
14 15 15 15 15 15 15 15 17 17 18 18 18 18 18 18 18 18 18 18 19 18 18 18 18 18 18 18 17 18 17 16 17 17 18 16 16 18 19 20 20 20 21 21 20
15 15 15 14 15 15 14 17 16 17 17 18 18 18 17 18 18 18 17 17 17 17 18 18 18 18 18 18 18 17 17 17 15 16 17 17 17 19 19 19 19 19 19 19 20
16 15 15 14 15 14 16 16 16 17 17 17 17 17 17 17 17 17 17 17 18 17 17 16 16 17 17 17 17 16 16 16 15 16 15 17 18 18 20 19 19 19 19 19 19
14 14 14 15 14 14 15 15 16 17 17 17 16 17 16 17 16 16 16 17 17 17 17 16 15 17 17 17 16 16 16 15 14 14 14 17 17 18 19 19 18 19 18 18 18
12 16 14 15 14 15 15 15 15 17 17 16 16 16 16 16 16 16 16 17 17 17 16 16 15 16 15 16 16 15 15 14 15 14 14 15 17 18 18 19 18 18 18 18 17
10 16 14 15 15 10 14 14 13 16 17 17 16 16 16 16 15 16 16 17 17 17 16 16 14 14 16 17 16 16 16 15 14 14 14 14 16 19 19 18 17 18 18 18 17
10 11 13 14 14 13 13 13 14 15 15 15 15 16 15 15 15 15 16 16 16 16 15 14 14 14 15 14 13 14 15 15 15 14 13 14 16 18 18 18 18 17 17 16 16
10 14 13 11 9 11 11 12 13 15 15 14 14 14 14 14 15 15 14 15 15 15 15 14 14 13 14 15 15 14 14 15 15 12 14 15 16 17 17 17 17 17 16 16 16
8 9 8 13 11 9 9 10 12 13 13 13 13 12 12 12 12 13 14 14 14 14 14 14 13 13 14 14 14 15 15 15 15 15 14 15 15 17 17 17 17 16 16 15 16
9 10 8 9 8 9 9 11 11 11 11 12 12 11 10 11 12 11 12 12 12 13 13 13 12 14 13 14 14 13 14 15 15 15 15 15 15 17 17 17 16 16 16 15 16
4 5 7 9 9 9 11 11 11 9 11 11 10 9 10 11 11 11 11 11 12 11 12 12 12 12 12 14 13 13 15 15 16 16 16 15 17 18 17 17 16 16 16 15 16

GFSSW_925_temp_072.txt.gz
Temp
8 8 8 8 8 8 8 8 8 10 11 12 13 12 13 12 13 15 19 19 18 18 18 21 22 24 24 27 28 29 28 28 29 29 30 30 29 30 32 31 32 32 32 32 31
8 8 8 8 8 8 8 7 7 9 12 12 13 13 13 13 13 19 20 19 18 18 20 23 24 24 26 27 28 28 28 29 31 31 31 31 30 29 28 30 31 32 32 31 31
8 8 8 8 8 8 8 8 8 8 10 13 13 13 14 13 19 23 20 19 18 18 20 21 23 25 25 27 27 27 27 30 30 31 30 30 30 31 28 28 29 30 30 31 31
8 8 8 8 8 8 8 8 8 7 9 12 13 13 14 14 23 22 19 19 19 19 21 22 24 24 25 25 27 26 28 28 29 29 29 29 29 29 29 28 28 29 30 30 31
7 8 8 8 8 8 8 8 8 9 12 13 13 13 14 21 23 19 19 19 18 20 22 23 24 24 24 26 26 25 27 27 27 28 28 29 28 28 28 28 28 29 29 30 31
7 7 7 8 8 8 8 7 7 10 13 14 13 13 16 22 21 20 19 19 21 22 23 23 24 24 24 24 24 26 26 26 27 27 27 27 28 28 28 28 27 28 28 29 30
7 7 7 7 7 8 8 8 11 13 14 14 13 12 18 23 21 20 20 21 21 21 24 23 23 24 24 24 25 24 23 25 26 26 27 28 26 27 29 27 27 28 28 28 29
7 7 6 7 7 8 8 11 14 15 15 14 13 14 21 21 20 20 21 22 21 21 22 22 23 24 24 24 24 23 24 24 27 26 27 26 26 27 26 26 27 26 27 28 28
6 7 8 9 11 12 13 14 14 15 15 14 13 16 22 21 22 22 22 23 23 22 22 22 23 24 23 23 24 24 24 25 26 25 25 25 26 28 26 25 25 24 26 27 27
7 7 10 11 14 14 14 14 14 14 13 13 15 18 22 23 22 22 22 22 23 24 23 23 23 23 24 24 24 25 24 24 24 25 25 25 25 26 26 25 25 25 24 26 27
6 7 10 12 14 15 13 14 18 19 17 21 21 21 22 22 21 23 23 23 23 23 22 23 23 23 24 24 23 23 23 23 24 25 23 24 25 26 26 26 26 25 24 24 25
6 7 11 14 15 15 14 20 18 17 20 21 21 21 21 21 22 24 23 23 23 22 23 22 22 24 23 23 22 22 22 23 24 24 23 23 24 25 25 26 26 26 25 25 25
6 12 13 15 16 15 18 17 16 16 20 22 22 22 23 22 23 23 24 24 23 23 23 22 23 23 22 22 22 22 22 22 22 23 23 23 23 25 25 25 25 25 25 24 23
7 12 15 16 16 17 19 16 17 16 21 22 22 23 23 23 22 24 24 24 23 22 23 23 23 22 22 22 23 22 24 22 21 21 22 23 21 25 25 25 24 25 25 25 24
11 14 15 16 16 19 17 16 16 17 21 23 23 23 24 23 23 23 23 24 22 23 22 23 22 22 21 22 23 22 22 21 21 21 21 22 22 24 23 23 23 24 24 24 24
14 14 15 16 15 16 16 16 17 20 20 22 23 22 22 23 23 23 23 23 23 23 23 23 24 22 22 22 22 22 21 21 22 21 20 23 23 24 24 24 24 24 24 24 24
15 15 15 16 18 16 16 19 20 20 22 21 22 22 22 22 22 22 22 22 21 21 21 23 23 23 22 21 21 21 21 20 21 22 21 21 20 23 23 23 23 23 23 23 23
15 15 15 14 15 15 18 20 19 21 21 21 21 21 21 22 22 21 21 21 22 21 21 21 21 22 22 22 22 22 21 20 19 21 22 21 20 23 23 23 22 22 22 22 23
15 15 16 15 15 15 20 20 20 20 20 20 20 20 21 20 20 21 21 21 22 22 20 21 20 21 20 22 21 21 19 21 19 20 20 21 23 22 22 22 22 22 22 22 22
14 17 19 15 15 17 20 19 20 20 19 19 19 20 20 20 19 20 20 21 20 20 21 20 18 21 21 20 20 20 21 18 19 17 18 21 22 22 22 22 22 22 22 22 22
14 19 16 14 14 20 18 20 19 20 19 18 19 19 19 19 20 20 20 20 20 20 20 20 19 19 20 19 19 19 19 19 19 19 18 19 22 22 22 22 21 21 21 22 21
16 20 16 15 19 19 19 19 15 19 19 19 19 18 18 19 19 19 19 20 20 20 19 20 17 18 19 20 20 19 19 19 17 16 18 18 19 23 22 22 21 21 22 21 21
17 18 16 16 19 20 19 18 17 17 18 18 18 18 18 17 17 18 18 20 19 19 18 19 17 16 18 18 18 17 19 19 19 18 16 16 20 22 22 22 22 22 21 21 21
16 18 19 18 16 16 16 17 17 17 17 16 17 17 17 17 18 17 18 18 18 18 16 16 16 15 15 17 14 15 16 18 18 15 17 18 19 21 22 22 22 22 21 21 20
15 15 13 18 18 15 15 16 16 16 17 16 17 15 15 15 17 17 17 17 18 17 16 16 15 16 17 18 17 17 16 16 16 17 16 18 19 20 21 21 21 21 21 20 20
14 14 14 15 14 14 13 17 16 16 14 16 15 15 16 14 15 15 16 16 15 16 16 16 14 16 15 17 17 16 17 18 19 19 19 19 19 21 22 22 21 21 20 20 20
10 10 11 14 15 14 17 16 15 14 14 14 14 14 13 14 15 15 15 14 15 14 15 15 13 13 14 17 16 16 18 18 19 19 19 19 20 22 21 21 20 20 20 19 20

GFSSW_925_temp_075.txt.gz
Temp
8 8 8 8 8 8 9 9 8 8 9 12 13 14 14 14 15 16 22 21 21 20 19 22 25 26 27 29 31 32 30 29 31 32 33 34 33 32 32 31 33 35 34 35 34
8 8 8 8 8 8 8 9 8 8 9 11 12 13 14 14 14 23 21 21 19 19 21 25 27 28 28 29 30 30 30 30 32 33 33 34 34 32 31 31 30 31 35 34 33
8 8 8 8 8 8 8 8 8 8 10 12 13 14 14 12 20 25 21 20 19 19 22 24 26 28 28 30 30 30 29 31 32 33 34 34 34 34 32 30 31 29 32 33 33
8 8 8 8 8 8 8 8 8 8 12 14 14 15 15 14 25 23 21 20 19 19 24 25 27 27 27 28 30 29 31 31 32 32 33 32 33 32 33 32 31 30 31 32 32
7 7 7 7 8 8 8 8 8 8 12 14 14 14 15 23 26 21 21 20 19 23 25 27 27 27 28 29 30 29 30 31 31 31 31 32 31 31 32 33 32 30 30 31 32
7 7 7 7 7 8 8 8 8 10 13 14 14 14 16 23 24 22 22 22 23 24 25 26 27 27 27 28 28 29 29 29 30 31 30 30 30 31 31 32 32 31 30 30 31
7 7 7 7 8 8 9 10 13 14 15 15 14 13 21 25 24 23 23 24 24 24 26 26 26 26 27 27 29 28 27 28 28 29 29 30 29 29 31 32 32 31 30 31 31
7 7 7 8 8 11 14 15 15 16 15 15 14 15 22 24 24 24 24 24 24 24 24 25 25 26 26 27 27 26 27 27 29 29 29 29 27 30 32 31 31 30 30 30 30
6 7 8 10 11 14 15 15 15 16 15 15 14 18 24 22 23 24 25 25 25 24 24 24 25 25 27 25 26 27 26 28 29 30 29 29 28 30 31 29 29 29 30 29 30
7 7 7 11 15 15 15 15 15 15 14 14 18 21 24 25 25 24 25 24 25 26 25 25 25 25 26 26 26 28 28 28 28 29 28 27 28 29 30 29 28 28 28 28 29
7 7 7 12 14 15 15 15 19 20 20 23 24 24 24 24 24 24 25 25 25 25 24 26 25 25 27 28 27 26 26 26 27 28 27 26 27 28 30 30 29 28 28 28 28
7 7 10 14 15 16 15 23 21 21 22 25 24 25 24 24 24 25 25 25 25 24 26 25 24 26 27 26 25 25 25 25 27 28 27 26 26 27 28 28 29 29 28 28 28
11 13 14 15 16 16 21 21 20 21 22 25 25 25 25 25 24 26 26 25 25 25 25 25 26 26 26 25 24 25 25 25 25 26 26 25 25 26 28 29 29 29 29 29 28
13 15 15 16 15 21 22 20 21 20 23 24 24 25 25 26 24 26 26 26 25 25 26 26 27 25 24 24 25 24 26 26 25 24 23 26 24 26 28 28 28 28 28 28 27
14 15 16 16 18 22 20 20 21 20 23 25 26 26 27 25 26 26 26 26 24 25 25 24 26 24 24 24 25 24 25 24 24 24 24 24 24 26 28 27 27 27 27 27 27
15 15 16 17 19 21 20 20 20 22 22 25 26 25 25 25 25 26 25 26 26 25 25 25 27 26 25 25 25 25 24 23 24 24 22 24 25 25 27 27 26 26 26 26 26
15 16 16 17 22 20 20 22 22 22 25 25 24 25 25 25 25 25 24 24 24 23 23 25 25 26 26 24 25 24 22 21 22 23 23 27 25 26 27 27 27 26 26 26 26
15 16 17 18 19 19 20 22 21 25 25 25 24 24 24 25 25 25 24 24 25 24 24 23 23 26 26 24 23 24 23 21 19 21 23 24 23 25 27 27 26 25 26 25 25
15 16 17 19 18 19 22 22 23 24 23 23 23 23 24 25 23 23 23 23 24 25 23 23 23 26 24 24 24 23 22 23 20 22 21 23 25 27 26 26 25 25 25 25 25
14 20 21 19 18 19 21 21 24 24 23 22 21 23 22 24 23 23 23 24 23 24 24 22 21 24 24 24 23 23 24 20 17 17 19 22 23 24 25 24 24 24 24 24 24
15 22 19 18 18 21 21 23 24 24 22 21 21 21 22 22 22 22 22 24 24 23 23 22 21 21 23 22 22 22 21 21 22 21 18 19 22 23 22 22 24 25 25 24 24
18 21 19 19 20 23 22 23 16 22 23 22 21 21 20 21 21 21 21 23 24 22 21 22 19 18 21 23 23 22 21 20 17 17 20 20 21 23 23 23 24 24 24 25 25
19 20 19 19 20 22 23 22 22 22 21 21 21 21 21 20 18 20 21 23 22 21 20 20 18 17 18 21 18 17 17 19 21 20 18 17 19 24 22 23 24 24 24 24 24
18 20 22 22 20 19 20 20 20 22 20 20 20 20 19 19 20 19 20 22 22 21 17 18 18 16 16 18 18 15 14 16 12 16 18 19 20 20 16 16 22 24 24 25 24
19 19 17 20 21 19 19 19 20 20 21 20 19 19 19 17 19 19 20 21 21 21 19 18 16 17 18 18 19 18 19 20 18 18 18 18 18 21 22 23 24 24 24 24 23
17 17 18 18 19 19 18 19 19 20 19 18 18 18 19 17 18 17 18 18 18 19 19 19 17 17 17 18 19 19 20 20 20 20 20 20 20 22 23 24 24 24 24 23 23
15 14 15 15 19 19 19 19 18 18 18 18 17 17 16 17 17 17 17 17 17 17 17 17 16 15 15 18 18 16 19 20 20 21 20 19 21 23 23 22 23 21 21 22 23